Back to catalog

THORAD DELTA 1 DEB

AliveSSO
NORAD 8564·DEBRIS·🇺🇸 United States

Launched Nov 15, 1974 from Vandenberg Space Force Base

Loading…

Next Passes (next 24 hours)

TLE

FreshSource: Space-Track

Epoch: Sep 12, 2026, 15:39 UTC

1 08564U 74089DB  26255.65268919  .00000216  00000-0  13132-2 0  9998
2 08564 101.2415 152.6582 0038959 193.3037 194.7735 12.69450661384841

Track THORAD DELTA 1 DEB in real time with AllMySat

Download on the App Store